Radiation Dose at Monitoring Post of Fukushima Daini Nuclear Power Station
Date,Time,MP-1(microSv/h),MP-2(microSv/h),MP-3(microSv/h),MP-4(microSv/h),MP-5(microSv/h),MP-6(microSv/h),MP-7(microSv/h),Wind Direction,Wind Velocity(m/s),Rain
2015/09/26,00:00,0.474,0.276,0.489,0.452,0.442,0.220,0.188,north-northwest,8.4,Yes
2015/09/26,00:10,0.470,0.274,0.489,0.446,0.445,0.219,0.190,north-northwest,8.3,No
2015/09/26,00:20,0.476,0.275,0.489,0.451,0.442,0.220,0.189,north-northwest,7.8,Yes
2015/09/26,00:30,0.471,0.273,0.491,0.447,0.446,0.221,0.189,north-northwest,7.8,Yes
2015/09/26,00:40,0.476,0.276,0.488,0.451,0.440,0.220,0.189,north-northwest,7.8,Yes
2015/09/26,00:50,0.471,0.274,0.491,0.449,0.445,0.221,0.191,north-northwest,6.7,Yes
2015/09/26,01:00,0.475,0.278,0.487,0.450,0.442,0.222,0.190,north-northwest,6.3,Yes
2015/09/26,01:10,0.471,0.276,0.490,0.446,0.445,0.221,0.190,north-northwest,6.7,Yes
2015/09/26,01:20,0.474,0.276,0.487,0.450,0.442,0.222,0.190,north,7.0,Yes
2015/09/26,01:30,0.471,0.275,0.490,0.448,0.444,0.222,0.191,north-northwest,6.2,Yes
2015/09/26,01:40,0.473,0.278,0.484,0.449,0.441,0.223,0.191,north-northwest,5.0,Yes
2015/09/26,01:50,0.469,0.277,0.489,0.446,0.445,0.222,0.192,north-northwest,6.6,Yes
2015/09/26,02:00,0.473,0.279,0.485,0.451,0.442,0.224,0.191,north,7.1,Yes
2015/09/26,02:10,0.470,0.277,0.490,0.447,0.445,0.222,0.192,north-northwest,7.3,Yes
2015/09/26,02:20,0.472,0.278,0.484,0.448,0.441,0.223,0.192,north,7.5,Yes
2015/09/26,02:30,0.469,0.277,0.490,0.446,0.446,0.223,0.192,north-northwest,6.9,Yes
2015/09/26,02:40,0.471,0.279,0.484,0.447,0.442,0.223,0.192,north-northwest,6.3,Yes
2015/09/26,02:50,0.469,0.278,0.487,0.444,0.445,0.224,0.191,north-northwest,6.6,Yes
2015/09/26,03:00,0.471,0.279,0.485,0.446,0.443,0.224,0.193,north-northwest,6.2,Yes
2015/09/26,03:10,0.471,0.277,0.487,0.446,0.445,0.224,0.192,north-northwest,6.4,Yes
2015/09/26,03:20,0.469,0.280,0.486,0.446,0.443,0.225,0.193,north-northwest,6.0,Yes
2015/09/26,03:30,0.469,0.277,0.486,0.446,0.448,0.224,0.193,north-northwest,5.9,Yes
2015/09/26,03:40,0.469,0.280,0.486,0.447,0.442,0.225,0.193,north-northwest,5.8,Yes
2015/09/26,03:50,0.471,0.278,0.487,0.449,0.447,0.224,0.192,north-northwest,6.4,Yes
2015/09/26,04:00,0.469,0.278,0.487,0.446,0.441,0.222,0.193,north-northwest,7.3,Yes
2015/09/26,04:10,0.472,0.277,0.485,0.448,0.448,0.222,0.191,north-northwest,6.1,Yes
2015/09/26,04:20,0.468,0.277,0.487,0.445,0.443,0.221,0.191,north-northwest,5.3,Yes
2015/09/26,04:30,0.471,0.276,0.483,0.449,0.446,0.222,0.192,north-northwest,5.9,Yes
2015/09/26,04:40,0.466,0.275,0.487,0.445,0.440,0.220,0.190,north-northwest,6.4,Yes
2015/09/26,04:50,0.471,0.274,0.483,0.447,0.446,0.220,0.189,north-northwest,6.4,No
2015/09/26,05:00,0.465,0.275,0.486,0.444,0.440,0.218,0.189,north-northwest,5.7,No
2015/09/26,05:10,0.470,0.273,0.483,0.448,0.446,0.219,0.188,north-northwest,6.3,No
2015/09/26,05:20,0.466,0.272,0.487,0.442,0.440,0.218,0.187,north-northwest,6.1,No
2015/09/26,05:30,0.468,0.273,0.484,0.446,0.443,0.219,0.187,north-northwest,6.2,Yes
2015/09/26,05:40,0.466,0.273,0.486,0.446,0.440,0.217,0.187,north-northwest,5.5,No
2015/09/26,05:50,0.468,0.273,0.484,0.444,0.443,0.217,0.187,north-northwest,5.2,No
2015/09/26,06:00,0.467,0.271,0.484,0.446,0.442,0.218,0.187,north-northwest,6.2,No
2015/09/26,06:10,0.465,0.272,0.485,0.442,0.440,0.217,0.186,north,6.3,No
2015/09/26,06:20,0.469,0.270,0.480,0.447,0.443,0.217,0.187,north-northwest,6.7,No
2015/09/26,06:30,0.466,0.274,0.487,0.443,0.441,0.217,0.187,north-northwest,6.4,No
2015/09/26,06:40,0.470,0.271,0.480,0.447,0.443,0.218,0.186,north-northwest,6.3,No
2015/09/26,06:50,0.464,0.272,0.489,0.443,0.438,0.217,0.186,north-northwest,6.4,No
2015/09/26,07:00,0.469,0.273,0.484,0.444,0.442,0.215,0.187,north-northwest,6.1,No
2015/09/26,07:10,0.468,0.271,0.483,0.446,0.439,0.219,0.186,north-northwest,5.3,No
2015/09/26,07:20,0.468,0.272,0.485,0.442,0.441,0.216,0.187,north-northwest,5.6,No
2015/09/26,07:30,0.470,0.272,0.483,0.448,0.440,0.216,0.187,north-northwest,5.5,No
2015/09/26,07:40,0.464,0.273,0.487,0.442,0.440,0.216,0.186,north-northwest,5.3,No
2015/09/26,07:50,0.470,0.271,0.483,0.447,0.443,0.219,0.186,north-northwest,4.8,No
2015/09/26,08:00,0.466,0.273,0.488,0.445,0.440,0.219,0.187,north-northwest,4.9,No
2015/09/26,08:10,0.470,0.273,0.486,0.446,0.445,0.218,0.188,north-northwest,4.7,No
2015/09/26,08:20,0.469,0.273,0.485,0.447,0.441,0.219,0.187,north-northwest,4.6,No
2015/09/26,08:30,0.469,0.273,0.488,0.444,0.445,0.218,0.189,north-northwest,4.5,No
2015/09/26,08:40,0.471,0.272,0.482,0.449,0.442,0.219,0.186,north-northwest,3.9,No
2015/09/26,08:50,0.467,0.274,0.487,0.447,0.443,0.217,0.189,north-northwest,3.6,No
2015/09/26,09:00,0.473,0.270,0.485,0.446,0.444,0.217,0.187,north-northwest,3.9,No
2015/09/26,09:10,0.469,0.273,0.484,0.448,0.437,0.219,0.188,north-northwest,3.9,No
2015/09/26,09:20,0.469,0.274,0.488,0.445,0.443,0.218,0.187,north-northwest,3.7,No
2015/09/26,09:30,0.472,0.272,0.483,0.449,0.441,0.218,0.187,north-northwest,4.3,No
2015/09/26,09:40,0.467,0.274,0.486,0.447,0.439,0.217,0.188,north-northwest,4.4,No
2015/09/26,09:50,0.473,0.272,0.487,0.442,0.445,0.216,0.188,north-northwest,5.4,No
2015/09/26,10:00,0.471,0.272,0.483,0.449,0.440,0.218,0.187,north,4.0,No
2015/09/26,10:10,0.467,0.275,0.487,0.448,0.439,0.218,0.186,north,4.4,No
2015/09/26,10:20,0.472,0.271,0.486,0.442,0.445,0.219,0.188,north,4.3,No
2015/09/26,10:30,0.468,0.271,0.480,0.449,0.442,0.219,0.187,north,4.2,No
2015/09/26,10:40,0.467,0.273,0.488,0.446,0.439,0.218,0.187,north,4.0,No
2015/09/26,10:50,0.472,0.273,0.487,0.443,0.443,0.218,0.189,north,3.9,No
2015/09/26,11:00,0.468,0.271,0.483,0.443,0.443,0.218,0.188,north-northeast,4.9,No
2015/09/26,11:10,0.469,0.275,0.484,0.450,0.440,0.218,0.187,north,4.6,No
2015/09/26,11:20,0.475,0.272,0.489,0.448,0.437,0.218,0.187,north-northeast,4.5,No
2015/09/26,11:30,0.468,0.273,0.485,0.446,0.443,0.218,0.187,north-northeast,4.6,No
2015/09/26,11:40,0.469,0.274,0.482,0.445,0.447,0.218,0.188,north-northeast,5.1,No
2015/09/26,11:50,0.472,0.274,0.492,0.452,0.442,0.218,0.187,north-northeast,5.4,No
2015/09/26,12:00,0.469,0.272,0.487,0.449,0.441,0.219,0.188,north-northeast,5.0,No
2015/09/26,12:10,0.472,0.273,0.483,0.444,0.448,0.219,0.189,north-northeast,5.6,No
2015/09/26,12:20,0.474,0.275,0.486,0.451,0.444,0.218,0.188,north-northeast,5.8,No
2015/09/26,12:30,0.469,0.273,0.488,0.454,0.441,0.219,0.188,north-northeast,5.8,No
2015/09/26,12:40,0.471,0.275,0.486,0.447,0.443,0.219,0.188,north-northeast,5.3,No
2015/09/26,12:50,0.474,0.275,0.487,0.448,0.449,0.219,0.190,north-northeast,5.9,No
2015/09/26,13:00,0.470,0.272,0.492,0.454,0.445,0.220,0.188,north-northeast,6.1,No
2015/09/26,13:10,0.477,0.276,0.487,0.449,0.442,0.220,0.187,north,6.4,No
2015/09/26,13:20,0.474,0.275,0.484,0.446,0.447,0.219,0.189,north,6.1,No
2015/09/26,13:30,0.469,0.272,0.490,0.454,0.445,0.220,0.189,north,6.0,No
2015/09/26,13:40,0.475,0.276,0.488,0.450,0.441,0.218,0.188,north,5.9,No
2015/09/26,13:50,0.472,0.275,0.486,0.447,0.448,0.219,0.191,north,5.8,No
2015/09/26,14:00,0.472,0.273,0.491,0.451,0.448,0.220,0.189,north,5.2,No
2015/09/26,14:10,0.477,0.276,0.488,0.453,0.442,0.219,0.188,north,6.1,No
2015/09/26,14:20,0.472,0.276,0.486,0.447,0.448,0.219,0.190,north,6.2,No
2015/09/26,14:30,0.474,0.274,0.494,0.451,0.447,0.219,0.189,north,5.6,No
2015/09/26,14:40,0.476,0.276,0.488,0.452,0.441,0.219,0.188,north-northeast,5.3,No
2015/09/26,14:50,0.471,0.275,0.485,0.447,0.447,0.218,0.189,north,4.0,No
2015/09/26,15:00,0.476,0.274,0.492,0.451,0.447,0.220,0.189,north,2.8,No
2015/09/26,15:10,0.474,0.275,0.490,0.454,0.441,0.220,0.189,north,2.5,No
2015/09/26,15:20,0.472,0.276,0.489,0.447,0.448,0.220,0.189,north,3.1,No
2015/09/26,15:30,0.476,0.274,0.493,0.453,0.446,0.221,0.190,north,3.5,No
2015/09/26,15:40,0.473,0.276,0.488,0.453,0.441,0.219,0.188,north,3.3,No
2015/09/26,15:50,0.474,0.273,0.489,0.447,0.450,0.220,0.191,north,2.5,No
2015/09/26,16:00,0.478,0.274,0.492,0.453,0.445,0.221,0.190,north-northwest,3.6,No
2015/09/26,16:10,0.471,0.275,0.485,0.453,0.440,0.220,0.188,north,3.3,No
2015/09/26,16:20,0.475,0.274,0.488,0.446,0.447,0.220,0.190,north,2.3,No
2015/09/26,16:30,0.476,0.277,0.492,0.454,0.444,0.220,0.189,north,2.0,No
2015/09/26,16:40,0.471,0.275,0.486,0.451,0.443,0.219,0.189,north,1.9,No
2015/09/26,16:50,0.476,0.274,0.489,0.447,0.449,0.219,0.188,north,1.6,No
2015/09/26,17:00,0.474,0.276,0.490,0.453,0.443,0.220,0.190,north,0.7,No
2015/09/26,17:10,0.472,0.274,0.487,0.450,0.445,0.219,0.190,north,1.7,No
2015/09/26,17:20,0.476,0.274,0.491,0.450,0.448,0.219,0.190,north,4.4,No
2015/09/26,17:30,0.473,0.276,0.489,0.454,0.443,0.220,0.189,north,4.0,No
2015/09/26,17:40,0.476,0.274,0.488,0.449,0.447,0.219,0.190,north,3.1,No
2015/09/26,17:50,0.477,0.276,0.493,0.452,0.445,0.221,0.190,north,2.7,No
2015/09/26,18:00,0.472,0.276,0.488,0.452,0.443,0.219,0.189,north,2.8,No
2015/09/26,18:10,0.477,0.274,0.490,0.450,0.449,0.220,0.190,north,3.1,No
2015/09/26,18:20,0.475,0.275,0.491,0.453,0.443,0.219,0.189,north,2.7,No
2015/09/26,18:30,0.474,0.274,0.487,0.451,0.447,0.220,0.192,north,2.6,No
2015/09/26,18:40,0.478,0.276,0.494,0.450,0.445,0.220,0.190,north,3.5,No
2015/09/26,18:50,0.471,0.275,0.489,0.454,0.444,0.219,0.190,north,3.0,No
2015/09/26,19:00,0.479,0.275,0.487,0.448,0.449,0.222,0.191,north,3.1,No
2015/09/26,19:10,0.475,0.277,0.493,0.453,0.443,0.221,0.189,north,3.8,No
2015/09/26,19:20,0.472,0.274,0.488,0.452,0.448,0.220,0.190,north,3.3,No
2015/09/26,19:30,0.480,0.275,0.491,0.449,0.447,0.219,0.189,north,3.1,No
2015/09/26,19:40,0.473,0.277,0.492,0.454,0.443,0.219,0.191,north,4.3,No
2015/09/26,19:50,0.476,0.274,0.487,0.447,0.448,0.219,0.189,north,3.6,No
2015/09/26,20:00,0.477,0.277,0.494,0.453,0.442,0.220,0.190,north-northwest,2.8,No
2015/09/26,20:10,0.471,0.275,0.488,0.452,0.448,0.220,0.191,north-northwest,2.5,No
2015/09/26,20:20,0.478,0.276,0.489,0.449,0.445,0.220,0.190,north,1.2,No
2015/09/26,20:30,0.475,0.275,0.492,0.454,0.442,0.218,0.191,north,2.2,No
2015/09/26,20:40,0.474,0.274,0.485,0.448,0.447,0.221,0.190,north,2.5,No
2015/09/26,20:50,0.479,0.278,0.491,0.453,0.442,0.221,0.191,north,2.2,No
2015/09/26,21:00,0.472,0.275,0.488,0.452,0.448,0.220,0.191,north,2.2,No
2015/09/26,21:10,0.476,0.276,0.488,0.450,0.445,0.222,0.189,north-northwest,2.6,No
2015/09/26,21:20,0.477,0.275,0.494,0.455,0.443,0.219,0.191,northwest,1.2,No
2015/09/26,21:30,0.472,0.274,0.487,0.449,0.448,0.220,0.189,north,2.0,No
2015/09/26,21:40,0.477,0.277,0.492,0.453,0.444,0.220,0.190,north,2.1,No
2015/09/26,21:50,0.473,0.275,0.491,0.453,0.447,0.220,0.190,north,2.2,No
2015/09/26,22:00,0.475,0.276,0.486,0.449,0.445,0.220,0.191,north,2.0,No
2015/09/26,22:10,0.476,0.276,0.494,0.454,0.443,0.220,0.191,north,2.7,No
2015/09/26,22:20,0.472,0.275,0.487,0.449,0.448,0.220,0.190,north-northeast,2.7,No
2015/09/26,22:30,0.475,0.277,0.493,0.452,0.444,0.220,0.191,north,2.3,No
2015/09/26,22:40,0.476,0.274,0.491,0.452,0.447,0.221,0.189,north,2.5,No
2015/09/26,22:50,0.472,0.277,0.489,0.448,0.445,0.221,0.190,north,2.0,No
2015/09/26,23:00,0.480,0.276,0.494,0.456,0.445,0.220,0.190,north-northwest,1.9,No
2015/09/26,23:10,0.474,0.276,0.489,0.451,0.449,0.221,0.191,north-northwest,2.2,No
2015/09/26,23:20,0.477,0.276,0.491,0.453,0.441,0.220,0.190,north-northwest,2.0,No
2015/09/26,23:30,0.474,0.275,0.492,0.453,0.449,0.220,0.191,north-northwest,1.7,No
2015/09/26,23:40,0.475,0.277,0.489,0.453,0.446,0.221,0.191,northwest,1.9,No
2015/09/26,23:50,0.479,0.275,0.493,0.455,0.446,0.220,0.190,north-northwest,2.2,No
